Flag Weather past 2 weeks in Fort Collins, Colorado, U.S.A.

Now
50 °F

Clear.


Feels Like: 46 °F
Forecast: 35 / 60 °F
Wind: 9 mph from East

Location: Fort Collins-Loveland Municipal Airport

Current Time: Nov 27, 2014 at 6:49:07 PM

Latest Report: Nov 27, 2014 at 6:35 PM


Visibility: 10 mi

Pressure: 30.10 "Hg

Humidity: 32%

Dew point: 21 °F

Location of Fort CollinsLocation

Historic Weather in Fort Collins — Graph

°F

Fort Collins temperature yesterday

Maximum temperature yesterday: 39 °F (at 1:15 PM)
Minimum temperature yesterday: 21 °F (at 11:15 PM)
Average temperature yesterday: 30 °F

Past Weeks' High & Low Weather Summary

 TemperatureHumidityPressure
High63 °F (Nov 27, 3:55 PM)100% (Nov 12, 10:15 PM)30.45 "Hg (Nov 12, 10:15 PM)
Low-6 °F (Nov 12, 9:55 PM)25% (Nov 27, 3:55 PM)29.56 "Hg (Nov 22, 5:15 PM)
Average26 °F63%30.03 "Hg
* Reported Nov 12 5:15 PM — Nov 27 5:35 PM, Fort Collins, Weather by CustomWeather, © 2014

Note: Actual official high and low records may vary slightly from our data, if they occured in-between our weather recording intervals... More about our weather records

Advertising

Fort Collins weather history for previous 24 hours

 ConditionsComfort  
Time TempWeatherWind HumidityBarometerVisibility
5:35 PM
Nov 27
54 °FClear.8 mph28%30.10 "Hg10 mi
4:55 PM52 °FClear.13 mph30%30.10 "Hg10 mi
4:35 PM55 °FClear.10 mph28%30.10 "Hg10 mi
4:15 PM59 °FSunny.12 mph27%30.10 "Hg10 mi
3:55 PM63 °FSunny.6 mph25%30.10 "Hg10 mi
3:35 PM61 °FSunny.7 mph29%30.09 "Hg10 mi
3:15 PM57 °FSunny.6 mph31%30.10 "Hg10 mi
2:55 PM57 °FSunny.8 mph31%30.09 "Hg10 mi
2:35 PM59 °FSunny.5 mph29%30.10 "Hg10 mi
2:15 PM57 °FSunny.8 mph33%30.09 "Hg10 mi
1:55 PM57 °FSunny.9 mph33%30.10 "Hg10 mi
1:35 PM57 °FSunny.6 mph33%30.12 "Hg10 mi
1:15 PM57 °FSunny.9 mph33%30.11 "Hg10 mi
12:55 PM59 °FSunny.8 mph31%30.12 "Hg10 mi
12:35 PM57 °FSunny.7 mph36%30.13 "Hg10 mi
12:15 PM54 °FSunny.No wind44%30.14 "Hg10 mi
11:55 AM50 °FSunny.9 mph50%30.14 "Hg10 mi
11:35 AM48 °FSunny.5 mph54%30.16 "Hg10 mi
11:15 AM45 °FSunny.7 mph61%30.16 "Hg10 mi
10:55 AM43 °FSunny.6 mph61%30.18 "Hg10 mi
10:35 AM43 °FSunny.3 mph61%30.19 "Hg10 mi
10:15 AM39 °FSunny.7 mph70%30.19 "Hg10 mi
9:55 AM36 °FSunny.6 mph81%30.20 "Hg10 mi
9:35 AM34 °FSunny.8 mph87%30.20 "Hg10 mi
9:15 AM30 °FSunny.No wind86%30.19 "Hg9 mi
8:55 AM28 °FSunny.No wind93%30.20 "Hg7 mi
8:35 AM28 °FSunny.3 mph86%30.20 "Hg5 mi
8:15 AM27 °FSunny.No wind86%30.20 "Hg5 mi
7:55 AM21 °FSunny.No wind86%30.19 "Hg5 mi
7:35 AM19 °FSunny.No wind93%30.20 "Hg6 mi
6:55 AM19 °FClear.No wind93%30.20 "Hg8 mi
6:35 AM19 °FClear.No wind86%30.20 "Hg7 mi
6:15 AM19 °FClear.6 mph86%30.20 "Hg7 mi
5:55 AM18 °FClear.5 mph93%30.21 "Hg7 mi
5:35 AM19 °FClear.6 mph86%30.20 "Hg7 mi
5:15 AM18 °FClear.No wind93%30.21 "Hg8 mi
4:55 AM19 °FClear.No wind86%30.21 "Hg8 mi
4:35 AM19 °FClear.No wind93%30.22 "Hg8 mi
3:55 AM19 °FClear.3 mph93%30.23 "Hg10 mi
3:35 AM21 °FClear.3 mph86%30.23 "Hg8 mi
3:15 AM19 °FClear.3 mph86%30.24 "Hg9 mi
2:55 AM19 °FClear.6 mph93%30.24 "Hg10 mi
2:35 AM21 °FClear.3 mph86%30.26 "Hg8 mi
2:15 AM21 °FClear.3 mph86%30.26 "Hg9 mi
1:55 AM23 °FClear.6 mph86%30.26 "Hg10 mi
1:35 AM25 °FClear.6 mph80%30.26 "Hg10 mi
1:15 AM21 °FClear.3 mph93%30.27 "Hg10 mi
12:55 AM21 °FClear.No wind86%30.26 "Hg10 mi
12:35 AM21 °FClear.No wind93%30.27 "Hg10 mi
12:15 AM23 °FClear.No wind86%30.27 "Hg10 mi
11:55 PM
Nov 26
21 °FClear.No wind93%30.28 "Hg10 mi
11:35 PM21 °FClear.No wind93%30.27 "Hg10 mi
11:15 PM21 °FClear.5 mph86%30.26 "Hg10 mi
10:55 PM23 °FClear.5 mph86%30.28 "Hg10 mi
10:35 PM23 °FClear.3 mph86%30.28 "Hg10 mi
10:15 PM23 °FClear.No wind86%30.27 "Hg10 mi
9:55 PM25 °FClear.3 mph80%30.28 "Hg10 mi
9:35 PM25 °FClear.No wind80%30.28 "Hg10 mi
9:15 PM25 °FClear.3 mph80%30.27 "Hg10 mi
8:55 PM23 °FClear.3 mph80%30.27 "Hg10 mi
8:35 PM25 °FClear.No wind80%30.27 "Hg10 mi
7:55 PM25 °FClear.3 mph74%30.28 "Hg10 mi
7:35 PM27 °FClear.No wind80%30.27 "Hg10 mi
7:15 PM27 °FClear.6 mph80%30.27 "Hg10 mi
6:55 PM28 °FClear.8 mph74%30.27 "Hg10 mi
6:35 PM28 °FClear.9 mph74%30.26 "Hg10 mi
6:15 PM28 °FClear.9 mph74%30.25 "Hg10 mi
Weather by CustomWeather, © 2014

See weather overviewHow to use our weather pages